User: anonymous   Login
Location: Zapote
(9.9191°N, 84.0597°W)
Time: 06:42:21
(UTC-06:00)
Language:

Tiros 1 despin weight - Orbit

View from above orbital plane
View from above orbital plane
View from above satellite
View from above satellite

Ground track
Ground track

The orbit data is extracted from the following two-line orbital elements,

1 00115U 60002D   21065.50204407  .00000061  00000-0  34268-4 0  9995
2 00115  48.1663  94.0337 0034798 322.6084  37.2408 14.83711170230720
Epoch (UTC): 06 March 2021 12:02:56
Eccentricity: 0.0034798
inclination: 48.1663°
perigee height: 593 km
apogee height: 642 km
right ascension of ascending node: 94.0337°
argument of perigee: 322.6084°
revolutions per day: 14.83711170
mean anomaly at epoch: 37.2408°
orbit number at epoch: 23072

The dashed part of the orbit path shows where the satellite is in the earth's shadow,  

DLR